User: anonymous   Login
Location: Newark
(2.6153°S, 29.9989°E)
Time: 14:13:53
(UTC+00:00)
Language:

N. Korean satellite - Orbit

View from above orbital plane
View from above orbital plane
View from above satellite
View from above satellite

Ground track
Ground track

The orbit data is extracted from the following two-line orbital elements,

1 39026U 12072A   19259.91160695 +.00000893 +00000-0 +34662-4 0  9990
2 39026 097.2140 260.1577 0039092 138.5066 221.9153 15.27984372375315
Epoch (UTC): 16 September 2019 21:52:42
Eccentricity: 0.0039092
inclination: 97.2140°
perigee height: 455 km
apogee height: 508 km
right ascension of ascending node: 260.1577°
argument of perigee: 138.5066°
revolutions per day: 15.27984372
mean anomaly at epoch: 221.9153°
orbit number at epoch: 37531

The dashed part of the orbit path shows where the satellite is in the earth's shadow,  

DLR